Overview Statistics Trail Chart Weather Telemetry Raw packets
 

This is the latest recevied weather packets stored in our database for station/object N5ATR. If no packets are shown the sender has not sent any weather packets the latest 10 day(s).

<< 69 70 71 72 73 74 75 >>
Time Temp. Humidity Pressure Rain* Wind** Luminosity Snow
1788198145 29.44° C 34% 1024.5 hPa 0 mm - 557 W/m² -
1788197844 28.33° C 33% 1024.5 hPa 0 mm - 691 W/m² -
1788197538 27.22° C 34% 1024.2 hPa 0 mm - 518 W/m² -
1788197239 27.78° C 35% 1024.4 hPa 0 mm - 760 W/m² -
1788196941 27.22° C 35% 1024.4 hPa 0 mm - 463 W/m² -
1788196628 27.22° C 34% 1024.4 hPa 0 mm - 604 W/m² -
1788196326 27.22° C 35% 1024.4 hPa 0 mm - 663 W/m² -
1788196022 27.78° C 34% 1024.5 hPa 0 mm - 560 W/m² -
1788195719 28.33° C 33% 1024.2 hPa 0 mm - 587 W/m² -
1788195414 27.22° C 34% 1024.4 hPa 0 mm - 617 W/m² -
1788195111 27.22° C 35% 1024.4 hPa 0 mm - 610 W/m² -
1788194806 27.22° C 35% 1024 hPa 0 mm - 496 W/m² -
1788194502 26.11° C 37% 1024.2 hPa 0 mm - 541 W/m² -
1788194197 27.22° C 36% 1024.2 hPa 0 mm - 400 W/m² -
1788193893 26.67° C 36% 1024.2 hPa 0 mm - 578 W/m² -
1788193593 25.56° C 37% 1024 hPa 0 mm - 418 W/m² -
1788193290 25.56° C 37% 1024.2 hPa 0 mm - 532 W/m² -
1788192986 25.56° C 37% 1024 hPa 0 mm - 512 W/m² -
1788192683 25.56° C 39% 1024.2 hPa 0 mm - 497 W/m² -
1788192381 25° C 40% 1024.2 hPa 0 mm - 485 W/m² -
1788192077 25° C 40% 1024.2 hPa 0 mm - 473 W/m² -
1788191777 24.44° C 40% 1024 hPa 0 mm - 459 W/m² -
1788191473 24.44° C 40% 1024 hPa 0 mm - 449 W/m² -
1788191168 23.89° C 41% 1024.4 hPa 0 mm - 441 W/m² -
1788190868 24.44° C 41% 1024.4 hPa 0 mm - 431 W/m² -

* Rain latest hour (hover to see other rain measurements)
** Current wind speed in m/s (hover to see current wind gust speed)